記事タイトル:Comet C/2001 W2 (BATTERS) 

最新の情報は「更新」や「再読み込み」ボタンを押してリロードしてご覧ください。

書き込み欄へ  ヘルプ
お名前: 佐藤 裕久   
A. Haleの観測は、0.41-m反射で、コマのdia 0.8'で眼視全光度が12.7等でした。

また、発見した美星スペースガードセンターの0.50-mf/2.0反射鏡「美星高速調査用
小惑星追跡望遠鏡(BATTeRS)」のほうではなく、0.25-mベーカーリッチクレチアン鏡
のようです。
OAAホームページ参照
[2001年11月24日 7時52分46秒]

お名前: 佐藤 裕久   
A. Hale(Cloudcroft, NM)は、11月 22.09日 UT、0.40-m反射により、眼視全光度を
12.7等と観測した。
その後、追加観測がなされ、暫定放物線軌道要素が計算された。

Orbital elements:
    C/2001 W2 (BATTERS)
T 2001 Dec. 22.353 TT                                   MPC
q   1.06796              (2000.0)            P               Q
                   Peri.  140.487       +0.559440       -0.050754
                   Node   113.535       -0.776869       -0.380080
e   1.0            Incl.  115.528       +0.288967       -0.923560
From 99 observations 2001 Nov. 21-23.

Ephemeris:
    C/2001 W2 (BATTERS)
Date    TT    R. A. (2000) Decl.     Delta      r     Elong.  Phase   m1
2001 11 17    17 56.69   +30 31.7    1.338    1.216    60.8    45.2  12.5
2001 11 22    18 13.08   +24 26.2    1.390    1.180    56.5    44.3  12.4
2001 11 27    18 27.10   +18 49.0    1.453    1.147    51.9    42.6  12.4
2001 12 02    18 39.29   +13 42.0    1.524    1.120    47.2    40.3  12.4
2001 12 07    18 50.07   +09 04.4    1.601    1.098    42.5    37.3  12.4
2001 12 12    18 59.74   +04 53.7    1.679    1.082    37.6    33.8  12.5
2001 12 17    19 08.54   +01 06.5    1.757    1.072    32.8    29.8  12.5

(IAUC 7760、MPEC 2001-W53)

命名は、LINEARやNEATのようにプロジェクト名になりました。
[2001年11月24日 6時49分16秒]

この記事への返信をどうぞ。
氏名
E-mail URL



記事一覧に戻る